STARLINK-34706, 64845

Orbit data source: Space-Track

STARLINK-34706, 64845 is a payload satellite owned by SpaceX/Seattle (US) in SSO that was launched on Sat, 19 Jul 2025 UTC via an FALCON 9 launch vehicle from the Air Force Western Test Range (AFWTR). Payload-class satellites include a variety of spacecraft equipped with specific instruments for various scientific and technological missions. These include communications satellites like Starlink; space stations such as the ISS; scientific satellites like the Hubble; Earth observation satellites from companies like Planet Labs, Umbra, and HawkEye 360; GPS; miniature CubeSats for education and research; and military/defense satellites.

Loading next visibility...
Identifier
64845, 2025-152D
Orbit
SSO
Country
Flag of USUS
Related business
Manufacturer
SpaceX/Seattle
Mission
Operational Commercial Communications
Bus & Motor
STARLINK V2MO, Unknown motor
Mass
575 kg wet, ~530 kg dry
Launch date (UTC)
2025-07-19 (11 months ago)
Launch vehicle
FALCON 9
Launch site
Air Force Western Test Range (AFWTR)
Object type
Payload
Rocket body
Debris
Shape & HBR
Box + 2 Pan, 17.7 m
Radar Cross Section
36.964 m², Large (>1 m²)

Expand to show TLE details & history
Last TLE update: 1 day ago

TLE from 1 day ago
0 STARLINK-34706
1 64845U 25152D   26170.57047405  .00003241  00000-0  22842-3 0  9991
2 64845  97.3401  24.7949 0002283  87.0258 273.1231 15.05659267 50744
Epoch: 2026-06-19T13:41Z
TLE epoch observation values (Epoch: 2026-06-19T13:41:28.957Z)
Latitude
-0.00003°
Longitude
-88.3733°
Altitude
552.47 km
Speed
7.586 km/s
True Right ascension
01h 39m 10s
True Declination
0° 00' 00"
Sunlit
Object was in daylight at epoch
Visualization orbit readout
Latitude
Unknown
Longitude
Unknown
Altitude
Unknown
Speed
Unknown
Apparent Right ascension
Unknown
Apparent Declination
Unknown
Sunlit
N/A
Visualization observer readout
Local Sidereal Time
10:18:32
Azimuth
Unknown
Elevation
Unknown
Doppler factor
Unknown
Orbital elements
Apogee altitude
548.046 km
Perigee altitude
544.884 km
Semi-major axis
6,924.602 km
Eccentricity
0.00023
Inclination
97.3401°
RAAN
24.7949°
Arg. of periapsis
87.0258°
True anomaly
273.09698°
Mean anomaly
273.1231°
Eccentric anomaly
273.11004°
Mean motion
3.76661 °/min
Orbital period
95.58 mins
BSTAR
0.00022842
Loading maneuver chart data...
Computing Atmospheric mass density...
Loading historical data...
Loading historical data...
Loading historical data...
Loading historical data...
Loading historical data...
Loading historical data...
Loading historical data...

Documentation

Showing up to 5 results
|